Preview of NWS' New Version of Forecast
This preview is not operational and should not be used for support decisions.

Regional Weather Roundup (RWR)

Issued by National Weather Service (NWS)

                            
000
ASUS46 KSEW 160310
RWRWA 

WASHINGTON REGIONAL WEATHER ROUNDUP
NATIONAL WEATHER SERVICE SEATTLE WA
800 PM PDT SUN SEP 15 2019

NOTE:"FAIR" INDICATES FEW OR NO CLOUDS BELOW 12,000 FEET WITH NO 
SIGNIFICANT WEATHER AND/OR OBSTRUCTIONS TO VISIBILITY.

WAZ507-509-555>559-160400-
SEATTLE, TACOMA, EVERETT, AND VICINITY
  
CITY           SKY/WX    TMP DP  RH WIND       PRES   REMARKS
EVERETT        CLOUDY    58  55  90 S7        29.77R                  
BOEING FIELD   CLOUDY    60  53  77 SE3       29.76R                  
RENTON         CLOUDY    60  56  86 SE3       29.76R                  
SEATAC AIRPORT CLOUDY    59  53  80 S8        29.77R                  
JBLM-MCCHORD   CLOUDY    58  58  99 S5        29.77R                  
PUYALLUP       CLOUDY    59  57  94 CALM      29.78R                  
BREMERTON      LGT RAIN  55  54  96 S9        29.76S                  
JBLM-FT LEWIS  CLOUDY    58  58  99 CALM      29.77R                  
TACOMA NARROWS CLOUDY    57  54  89 NW5       29.78R                  
$$
 
WAZ001-503-506-510-514-515-160400-
NORTH INTERIOR
  
CITY           SKY/WX    TMP DP  RH WIND       PRES   REMARKS
BELLINGHAM     CLOUDY    60  52  74 S6        29.75R                  
FRIDAY HARBOR  CLOUDY    56  53  90 CALM      29.76R                  
EASTSOUND      CLOUDY    59  55  88 S9        29.74R                  
PORT ANGELES   PTCLDY    55  54  96 S3        29.75R                  
EDIZ HOOK      FAIR      55  53  95 SE5       29.75R                  
PORT TOWNSEND  DRIZZLE   57  57 100 CALM      29.74S                  
NAS WHIDBEY    CLOUDY    62  55  77 CALM      29.79R                  
ARLINGTON      CLOUDY    59  54  83 SE10      29.76S                  
BURLINGTON     CLOUDY    59  55  88 CALM      29.76S                  
$$
 
WAZ020-022-039-040-504-511-512-160400-
SOUTHWEST INTERIOR
  
CITY           SKY/WX    TMP DP  RH WIND       PRES   REMARKS
SHELTON        CLOUDY    59  55  87 CALM      29.74R                  
OLYMPIA        LGT RAIN  58  54  86 SW6       29.77R                  
CHEHALIS       CLOUDY    59  57  94 VRB6      29.78R                  
KELSO          CLOUDY    59  56  89 SE5       29.79R                  
VANCOUVER      CLOUDY    60  54  80 VRB5      29.78F                  
SCAPPOOSE, OR  CLOUDY    58  55  90 CALM      29.78R                  
PORTLAND, OR   CLOUDY    60  55  83 S5        29.79S                  
$$
 
WAZ021-516-517-160400-
WASHINGTON COAST
  
CITY           SKY/WX    TMP DP  RH WIND       PRES   REMARKS
FORKS          PTCLDY    57  54  89 CALM      29.73R                  
HOQUIAM        PTCLDY    61  57  87 S6        29.75R                  
ASTORIA, OR    PTCLDY    59  55  87 SW7       29.75S                  
$$
 
WAZ019-023-024-040-567>569-160400-
CASCADE MOUNTAINS AND COLUMBIA GORGE
  
CITY           SKY/WX    TMP DP  RH WIND       PRES   REMARKS
STAMPEDE PASS  FOG       46  44  93 VRB5      29.81R VSB 1/2          
TROUTDALE, OR  CLOUDY    60  53  77 CALM      29.79F                  
HOOD RIVER, OR CLOUDY    59  50  72 CALM      29.79S                  
THE DALLES, OR CLOUDY    57  54  89 CALM      29.78R                  
$$

WAZ026-027-041>044-520-521-160400-
EAST SLOPES
  
CITY           SKY/WX    TMP DP  RH WIND       PRES   REMARKS
OMAK           CLOUDY    60  54  80 SE5       29.72R                  
WENATCHEE      CLOUDY    57  51  80 CALM      29.73R                  
ELLENSBURG     CLOUDY    56  50  80 N5        29.75S                  
YAKIMA         CLOUDY    57  52  83 NE3       29.74F                  
SUNNYSIDE ARPT CLOUDY    56  54  91 CALM      29.76R                  
YAKIMA TC      MOCLDY    55  50  83 CALM      29.72F                  
$$

WAZ028-034-035-160400-
COLUMBIA BASIN
  
CITY           SKY/WX    TMP DP  RH WIND       PRES   REMARKS
EPHRATA        CLOUDY    60  50  69 SW3       29.72F                  
MOSES LAKE     CLOUDY    63  49  60 SW6       29.74R                  
PASCO          CLOUDY    67  48  50 W7        29.75S                  
RICHLAND ARPT  CLOUDY    65  48  53 S6        29.75                   
HERMISTON, OR  CLOUDY    64  45  49 W10       29.77R                  
$$

WAZ036>038-160400-
NORTHEAST WASHINGTON
  
CITY           SKY/WX    TMP DP  RH WIND       PRES   REMARKS
SPOKANE GEIGER MOCLDY    62  47  57 W9        29.77R                  
SPOKANE FELTS  CLOUDY    65  48  54 W6        29.76R                  
FAIRCHILD AFB  CLOUDY    58  49  71 W5        29.77R                  
COEURDALENE,ID CLOUDY    65  48  54 W15       29.74R                  
DEER PARK      CLOUDY    63  46  54 W6        29.75R                  
$$

WAZ029>033-160400-
SOUTHEAST WASHINGTON
  
CITY           SKY/WX    TMP DP  RH WIND       PRES   REMARKS
PULLMAN        MOCLDY    60  48  64 W7        29.79R                  
LEWISTON, ID   MOCLDY    68  48  48 W14G22    29.73R                  
WALLA WALLA    CLOUDY    67  49  52 SW5       29.78R                  
PENDLETON, OR  CLOUDY    61  42  49 SW10      29.80R                  
$$